Location: Cazavet
(43.0017°N, 1.0431°E)
Time: 22:06:54
(UTC+00:00)

NOSS 2-2 (D) - Pass Details

Date: 18 January 2026
Orbit: 384 x 1700 km, 63.3° (Epoch: 11 February)

Event Time Altitude Azimuth Distance (km) Brightness Sun altitude
Rises 06:43:24 0° 212° (SSW) 2,730 6.8 -7.4°
Reaches altitude 10° 06:45:49 10° 211° (SSW) 1,688 5.7 -7.0°
Maximum altitude 06:49:25 77° 126° (SE) 442 3.0 -6.4°
Drops below altitude 10° 06:52:28 10° 39° (NE) 1,437 5.7 -5.8°
Sets 06:54:23 0° 38° (NE) 2,273 6.7 -5.5°
